SM7GXQ Weather Reports


Display with metric or nautical units.
time (UTC)temp
F
wind
direction
speed
MPH
gust
MPH
rain 1hr
in
rain 24hr
in
rain mn
in
humidity
%
barometer
mb
20260509151504 60 74 4.0 12.0 0.00 0.00 0.00 41 1020.9
20260509150006 60 74 7.0 13.0 0.00 0.00 0.00 40 1021.0
20260509144505 59 93 4.0 12.0 0.00 0.00 0.00 39 1021.2
20260509140005 57 357 8.0 13.0 0.00 0.00 0.00 52 1021.9
20260509133005 55 357 12.0 17.0 0.00 0.00 0.00 56 1021.9
20260509131504 55 350 12.0 16.0 0.00 0.00 0.00 54 1022.1
20260509124505 55 349 12.0 17.0 0.00 0.00 0.00 55 1022.1
20260509121504 56 345 8.0 12.0 0.00 0.00 0.00 61 1022.2
20260509120005 59 65 8.0 14.0 0.00 0.00 0.00 38 1022.2
20260509114504 59 57 4.0 12.0 0.00 0.00 0.00 41 1022.4
20260509110005 54 0 11.0 16.0 0.00 0.00 0.00 66 1022.5
20260509104504 54 3 10.0 15.0 0.00 0.00 0.00 67 1022.5
20260509100005 52 351 10.0 16.0 0.00 0.00 0.00 74 1022.7
20260509093006 52 354 9.0 16.0 0.00 0.00 0.00 76 1022.8
20260509090005 51 354 10.0 14.0 0.00 0.00 0.00 77 1022.8
20260509080006 51 350 9.0 12.0 0.00 0.00 0.00 76 1022.8
20260509074504 51 351 8.0 13.0 0.00 0.00 0.00 76 1022.8
20260509073005 51 4 7.0 12.0 0.00 0.00 0.00 74 1022.9
20260509071505 51 345 8.0 12.0 0.00 0.00 0.00 74 1023.1
20260509064504 52 8 6.0 12.0 0.00 0.00 0.00 69 1023.0
20260509061504 50 66 5.0 7.0 0.00 0.00 0.00 66 1023.1
20260509060004 49 25 4.0 7.0 0.00 0.00 0.00 69 1023.1
20260509043004 46 30 5.0 8.0 0.00 0.00 0.00 77 1023.0
20260509034503 43 28 3.0 6.0 0.00 0.00 0.00 84 1023.2
20260509033004 42 21 1.0 5.0 0.00 0.00 0.00 86 1023.2
20260509031504 42 24 2.0 5.0 0.00 0.00 0.00 84 1023.3
20260509024504 43 34 3.0 7.0 0.00 0.00 0.00 84 1023.2
20260509020004 43 31 3.0 7.0 0.00 0.00 0.00 78 1023.4
20260509013003 43 28 3.0 7.0 0.00 0.00 0.00 77 1023.4
20260509001503 44 16 2.0 6.0 0.00 0.00 0.00 74 1023.5
20260509000004 44 20 4.0 7.0 0.00 0.00 0.00 73 1023.6
20260508231504 44 26 3.0 7.0 0.00 0.00 0.00 74 1023.8
20260508223003 44 30 5.0 7.0 0.00 0.00 0.00 73 1024.0
20260508221504 44 10 3.0 7.0 0.00 0.00 0.00 74 1024.0
20260508220004 44 16 3.0 6.0 0.00 0.00 0.00 73 1024.0
20260508214503 45 14 3.0 6.0 0.00 0.00 0.00 73 1024.1
20260508213004 45 22 3.0 6.0 0.00 0.00 0.00 73 1024.1
20260508210003 46 40 3.0 6.0 0.00 0.00 0.00 74 1024.0
20260508200004 46 23 3.0 7.0 0.00 0.00 0.00 80 1023.8
20260508194504 46 22 3.0 8.0 0.00 0.00 0.00 80 1023.8
20260508193005 46 31 4.0 8.0 0.00 0.00 0.00 79 1023.7
20260508184504 47 10 2.0 3.0 0.00 0.00 0.00 70 1023.2
20260508171504 52 79 3.0 7.0 0.00 0.00 0.00 53 1023.2
20260508170004 53 61 5.0 8.0 0.00 0.00 0.00 48 1023.2
20260508163005 54 48 4.0 12.0 0.00 0.00 0.00 32 1023.0
20260508161504 55 29 5.0 14.0 0.00 0.00 0.00 32 1023.1
20260508160004 55 46 5.0 12.0 0.00 0.00 0.00 31 1023.2
20260508153004 56 40 6.0 18.0 0.00 0.00 0.00 29 1023.2